Other Public Products
Issued by NWS Charleston, SC

Current Version | Previous Version | Graphics & Text | Print | Product List | Glossary On
Versions: 1 2 3 4 5 6 7 8 9 10 11 12 13 14 15 16 17 18 19 20 21 22 23 24 25 26 27 28 29 30 31 32 33 34 35 36 37 38 39 40 41 42 43 44 45 46 47 48 49 50
092
FPUS82 KCHS 101512
OPUCHS

TEST...KCHS/KSAV Gateway Observations...TEST
National Weather Service Charleston SC
1000 AM EST SAT DEC 10 2016

NOTE: "fair" indicates few or no clouds below 12,000 feet with no
significant weather and/or obstructions to visibility.

SCZ050-WAZ558-NCZ071-TXZ119-213-PAZ071-DCZ001-FLZ074-172-MI076-
NYZ176-178-MAZ016-IL014-TNZ027-NJZ106-GAZ044-MD014-101600-
...Gateway Observations for Charleston International...

CITY           SKY/WX    TMP DP  RH WIND       PRES   REMARKS
Chas Airport   MOSUNNY   43  24  47 NE9       30.56R
Seattle        MOCLDY    38  36  92 S9        29.86S WCI  31
Charlotte      SUNNY     33  15  47 CALM      30.56R
Dallas DFW     CLOUDY    40  24  53 S15       30.44S WCI  32
Dallas Love    CLOUDY    40  25  55 S13       30.47R WCI  32
Philladelphia  MOSUNNY   34  17  50 NW18      30.46S WCI  23
Wash National  MOSUNNY   35  14  42 NW13G23   30.52R WCI  26
Baltimore      MOSUNNY   34  17  50 W16       30.49R WCI  24
Miami          RAIN      68  68 100 NE7       30.27R FOG
Detroit        LGT SNOW  24  18  77 SW13      30.47S WCI  12
Newark         PTSUNNY   33  22  63 W13       30.41S WCI  24
Laguardia      PTSUNNY   34  19  54 W13       30.40S WCI  25
J F K          PTSUNNY   34  20  56 W13       30.42S WCI  25
Boston Logan   MOSUNNY   24   7  48 NW16G23   30.31S WCI  11
Ft. Lauderdale LGT RAIN  69  68  96 NE10G21   30.26R FOG
Chicago O`Hare PTSUNNY   19  13  77 W10       30.52R WCI   7
Chicago Midway PTSUNNY   21  12  68 W9        30.53R WCI  11
Houston Bush   PTSUNNY   41  29  62 E9        30.51R
Houston Hobby  MOSUNNY   46  34  62 NE9       30.49S
Nashville      MOSUNNY   28  21  75 CALM      30.63R
Atlanta        SUNNY     35  19  52 N3        30.54R

$$

GAZ044-118-TXZ119-213-NCZ071-DCZ001-MDZ014-506-PAZ021-071-NJZ106-
NYZ176-178-MAZ106-OHZ011-021-055-MIZ076-KYZ091-ILZ014-INZ047-
MNZ060-101600-
...Gateway Observations for Savannah International...

CITY           SKY/WX    TMP DP  RH WIND       PRES   REMARKS
Savannah Arpt  MOSUNNY   45  26  47 NE10      30.54R
Atlanta        SUNNY     35  19  52 N3        30.54R
Charlotte      SUNNY     33  15  47 CALM      30.56R
Dallas DFW     CLOUDY    40  24  53 S15       30.44S WCI  32
Houston Bush   PTSUNNY   41  29  62 E9        30.51R
Wash National  MOSUNNY   35  14  42 NW13G23   30.52R WCI  26
Wash Dulles    MOSUNNY   33  12  41 NW14      30.51R WCI  23
Baltimore      MOSUNNY   34  17  50 W16       30.49R WCI  24
Philadelphia   MOSUNNY   34  17  50 NW18      30.46S WCI  23
Newark         PTSUNNY   33  22  63 W13       30.41S WCI  24
Laguardia      PTSUNNY   34  19  54 W13       30.40S WCI  25
J F K          PTSUNNY   34  20  56 W13       30.42S WCI  25
Boston         MOSUNNY   24   7  48 NW16G23   30.31S WCI  11
Pittsburg      LGT SNOW  25  19  78 SW12      30.45F WCI  14
Akron          CLOUDY    23  14  68 SW13      30.47R WCI  11
Cleveland      PTSUNNY   26  16  65 SW14      30.50R WCI  14
Cincinnati     PTSUNNY   24  18  77 SW6       30.56R WCI  17
Columbus         N/A     24  18  78 SW9       30.55R WCI  14
Detroit        LGT SNOW  24  18  77 SW13      30.47S WCI  12
Chicago O`Hare PTSUNNY   19  13  77 W10       30.52R WCI   7
Minneapolis    CLOUDY     6   0  76 N3        30.48F
Indianapolis   CLOUDY    23  15  71 W12       30.55R WCI  12

$$




USA.gov is the U.S. government's official web portal to all federal, state and local government web resources and services.